Location: Banios
(43.0451°N, 0.2335°E)
Time: 09:15:31
(UTC+00:00)

A-11 Canister half - Pass Details

Date: 18 May 2021
Orbit: 1527 x 1681 km, 47.3° (Epoch: 22 June)

Event Time Altitude Azimuth Distance (km) Brightness Sun altitude
Rises 05:14:45 0° 184° (S) 4,669 11.3 6.2°
Reaches altitude 10° 05:18:52 10° 168° (SSE) 3,702 11.0 6.9°
Maximum altitude 05:25:00 20° 126° (SE) 3,032 11.1 7.9°
Drops below altitude 10° 05:31:13 10° 84° (E) 3,776 13.2 9.0°
Sets 05:35:25 0° 69° (ENE) 4,792 14.0 9.7°
